Station Historical Data
Daily Summary for January 2, 2018 Units:  English    Metric   Both
« Previous Day
Next Day »
Daily Weekly Monthly Yearly Custom
  High: Low: Average:
Temperature: 23.0 °F 12.3 °F 16.1 °F
Dew Point: 7.0 °F 0.8 °F 3.5 °F
Humidity: 67 % 46 % 57 %
Wind Speed: 15.0 mph 0.0 mph 2.7 mph
Wind Gust: 17.0 mph - -
Wind:- - WSW
Pressure: 30.64 in 30.45 in -
Precipitation: 0.00 in    
Historical Graphs
 
 
Tabular Data for January 2, 2018
Time Temperature Dew Point Pressure Wind Wind Speed Wind Gust Humidity Rainfall Rate (Hourly)
00:01 13.3 °F 0.9 °F 30.58 in WSW 7.0 mph 11.0 mph 57 % 0.00 in
00:02 13.3 °F 0.9 °F 30.57 in Calm   11.0 mph 57 % 0.00 in
00:03 13.3 °F 0.9 °F 30.57 in Calm   11.0 mph 57 % 0.00 in
00:07 13.2 °F 1.2 °F 30.58 in Calm   11.0 mph 58 % 0.00 in
00:08 13.2 °F 1.2 °F 30.57 in WSW 3.0 mph 11.0 mph 58 % 0.00 in
00:13 13.1 °F 1.1 °F 30.57 in Calm   11.0 mph 58 % 0.00 in
00:18 13.0 °F 1.0 °F 30.57 in West 3.0 mph 11.0 mph 58 % 0.00 in
00:20 12.9 °F 0.9 °F 30.57 in NW 5.0 mph 8.0 mph 58 % 0.00 in
00:25 12.9 °F 0.9 °F 30.58 in Calm   8.0 mph 58 % 0.00 in
00:26 12.8 °F 0.8 °F 30.57 in West 2.0 mph 8.0 mph 58 % 0.00 in
00:30 12.8 °F 1.2 °F 30.57 in WSW 2.0 mph 8.0 mph 59 % 0.00 in
00:32 12.8 °F 1.2 °F 30.57 in WSW 1.0 mph 8.0 mph 59 % 0.00 in
00:36 12.7 °F 1.1 °F 30.57 in WSW 3.0 mph 7.0 mph 59 % 0.00 in
00:41 12.7 °F 1.1 °F 30.57 in West 2.0 mph 8.0 mph 59 % 0.00 in
00:46 12.8 °F 1.2 °F 30.57 in Calm   9.0 mph 59 % 0.00 in
00:47 12.8 °F 1.2 °F 30.57 in WSW 3.0 mph 9.0 mph 59 % 0.00 in
00:52 12.7 °F 1.1 °F 30.57 in WSW 2.0 mph 9.0 mph 59 % 0.00 in
00:53 12.7 °F 1.1 °F 30.57 in West 6.0 mph 9.0 mph 59 % 0.00 in
00:58 12.7 °F 1.1 °F 30.57 in WSW 2.0 mph 10.0 mph 59 % 0.00 in
00:59 12.7 °F 1.1 °F 30.57 in SW 3.0 mph 10.0 mph 59 % 0.00 in
01:01 12.7 °F 1.1 °F 30.57 in Calm   10.0 mph 59 % 0.00 in
01:04 12.7 °F 1.1 °F 30.56 in WSW 2.0 mph 10.0 mph 59 % 0.00 in
01:09 12.6 °F 1.0 °F 30.57 in SW 5.0 mph 10.0 mph 59 % 0.00 in
01:10 12.6 °F 1.0 °F 30.57 in SW 5.0 mph 10.0 mph 59 % 0.00 in
01:13 12.6 °F 1.0 °F 30.57 in SW 6.0 mph 10.0 mph 59 % 0.00 in
01:15 12.7 °F 1.1 °F 30.57 in WNW 4.0 mph 8.0 mph 59 % 0.00 in
01:19 12.6 °F 1.0 °F 30.56 in West 4.0 mph 8.0 mph 59 % 0.00 in
01:25 12.6 °F 1.0 °F 30.57 in Calm   9.0 mph 59 % 0.00 in
01:27 12.5 °F 0.9 °F 30.57 in WSW 1.0 mph 9.0 mph 59 % 0.00 in
01:32 12.6 °F 1.0 °F 30.56 in WSW 1.0 mph 9.0 mph 59 % 0.00 in
01:34 12.6 °F 1.0 °F 30.57 in WSW 8.0 mph 11.0 mph 59 % 0.00 in
01:39 12.7 °F 1.1 °F 30.57 in WSW 1.0 mph 11.0 mph 59 % 0.00 in
01:40 12.7 °F 1.1 °F 30.57 in WSW 3.0 mph 11.0 mph 59 % 0.00 in
01:41 12.6 °F 1.0 °F 30.57 in WSW 4.0 mph 11.0 mph 59 % 0.00 in
01:45 12.6 °F 1.0 °F 30.57 in WSW 4.0 mph 11.0 mph 59 % 0.00 in
01:50 12.6 °F 1.4 °F 30.57 in WNW 5.0 mph 11.0 mph 60 % 0.00 in
01:51 12.6 °F 1.4 °F 30.57 in WSW 3.0 mph 11.0 mph 60 % 0.00 in
01:56 12.6 °F 1.4 °F 30.57 in SW 7.0 mph 11.0 mph 60 % 0.00 in
01:57 12.6 °F 1.4 °F 30.57 in WSW 5.0 mph 11.0 mph 60 % 0.00 in
01:58 12.6 °F 1.4 °F 30.57 in WSW 3.0 mph 11.0 mph 60 % 0.00 in
02:03 12.7 °F 1.5 °F 30.57 in WSW 3.0 mph 11.0 mph 60 % 0.00 in
02:04 12.7 °F 1.5 °F 30.57 in SW 3.0 mph 11.0 mph 60 % 0.00 in
02:09 12.7 °F 1.4 °F 30.57 in Calm   11.0 mph 60 % 0.00 in
02:14 12.7 °F 1.1 °F 30.57 in WNW 9.0 mph 11.0 mph 59 % 0.00 in
02:16 12.7 °F 1.1 °F 30.57 in West 1.0 mph 11.0 mph 59 % 0.00 in
02:21 12.8 °F 1.2 °F 30.57 in SW 4.0 mph 11.0 mph 59 % 0.00 in
02:25 12.8 °F 1.2 °F 30.58 in WSW 8.0 mph 11.0 mph 59 % 0.00 in
02:27 12.7 °F 1.1 °F 30.58 in West 2.0 mph 10.0 mph 59 % 0.00 in
02:31 12.7 °F 1.4 °F 30.58 in Calm   10.0 mph 60 % 0.00 in
02:34 12.7 °F 1.4 °F 30.58 in WSW 1.0 mph 10.0 mph 60 % 0.00 in
02:39 12.6 °F 1.3 °F 30.58 in WSW 5.0 mph 10.0 mph 60 % 0.00 in
02:44 12.5 °F 1.2 °F 30.57 in SW 3.0 mph 8.0 mph 60 % 0.00 in
02:45 12.5 °F 1.2 °F 30.57 in WSW 5.0 mph 8.0 mph 60 % 0.00 in
02:46 12.5 °F 1.2 °F 30.57 in WSW 4.0 mph 8.0 mph 60 % 0.00 in
02:51 12.6 °F 1.3 °F 30.58 in SW 2.0 mph 10.0 mph 60 % 0.00 in
02:56 12.6 °F 1.3 °F 30.57 in WSW 1.0 mph 10.0 mph 60 % 0.00 in
02:57 12.6 °F 1.3 °F 30.57 in SW 5.0 mph 10.0 mph 60 % 0.00 in
03:02 12.6 °F 1.3 °F 30.58 in WSW 4.0 mph 10.0 mph 60 % 0.00 in
03:03 12.6 °F 1.3 °F 30.58 in SW 2.0 mph 10.0 mph 60 % 0.00 in
03:08 12.6 °F 1.7 °F 30.58 in WSW 8.0 mph 9.0 mph 61 % 0.00 in
03:10 12.6 °F 1.3 °F 30.58 in WSW 6.0 mph 9.0 mph 60 % 0.00 in
03:13 12.6 °F 1.7 °F 30.58 in SW 5.0 mph 9.0 mph 61 % 0.00 in
03:17 12.5 °F 1.6 °F 30.58 in Calm   10.0 mph 61 % 0.00 in
03:21 12.5 °F 1.6 °F 30.58 in WSW 5.0 mph 10.0 mph 61 % 0.00 in
03:26 12.5 °F 1.6 °F 30.58 in WSW 6.0 mph 10.0 mph 61 % 0.00 in
03:27 12.5 °F 1.6 °F 30.58 in WSW 6.0 mph 10.0 mph 61 % 0.00 in
03:30 12.5 °F 1.6 °F 30.58 in Calm   10.0 mph 61 % 0.00 in
03:32 12.5 °F 1.6 °F 30.58 in WSW 3.0 mph 10.0 mph 61 % 0.00 in
03:37 12.4 °F 1.5 °F 30.58 in WSW 3.0 mph 9.0 mph 61 % 0.00 in
03:42 12.4 °F 1.5 °F 30.58 in WSW 2.0 mph 8.0 mph 61 % 0.00 in
03:45 12.3 °F 1.4 °F 30.58 in West 3.0 mph 8.0 mph 61 % 0.00 in
03:49 12.4 °F 1.8 °F 30.58 in WSW 6.0 mph 10.0 mph 62 % 0.00 in
03:54 12.4 °F 1.8 °F 30.58 in WSW 4.0 mph 10.0 mph 62 % 0.00 in
03:55 12.4 °F 1.8 °F 30.58 in Calm   10.0 mph 62 % 0.00 in
03:59 12.5 °F 1.9 °F 30.58 in West 3.0 mph 10.0 mph 62 % 0.00 in
04:01 12.5 °F 1.9 °F 30.58 in WSW 5.0 mph 10.0 mph 62 % 0.00 in
04:06 12.5 °F 1.6 °F 30.58 in West 1.0 mph 9.0 mph 61 % 0.00 in
04:07 12.5 °F 1.6 °F 30.58 in Calm   9.0 mph 61 % 0.00 in
04:08 12.5 °F 1.6 °F 30.58 in West 2.0 mph 9.0 mph 61 % 0.00 in
04:13 12.6 °F 1.7 °F 30.58 in WSW 4.0 mph 10.0 mph 61 % 0.00 in
04:17 12.6 °F 1.7 °F 30.58 in West 2.0 mph 10.0 mph 61 % 0.00 in
04:19 12.6 °F 1.7 °F 30.58 in SW 3.0 mph 10.0 mph 61 % 0.00 in
04:24 12.6 °F 1.7 °F 30.58 in WSW 7.0 mph 11.0 mph 61 % 0.00 in
04:25 12.6 °F 1.7 °F 30.58 in WSW 3.0 mph 11.0 mph 61 % 0.00 in
04:30 12.7 °F 1.8 °F 30.58 in WSW 3.0 mph 11.0 mph 61 % 0.00 in
04:35 12.6 °F 1.7 °F 30.58 in Calm   11.0 mph 61 % 0.00 in
04:37 12.6 °F 1.7 °F 30.58 in WSW 4.0 mph 11.0 mph 61 % 0.00 in
04:42 12.5 °F 1.6 °F 30.58 in SW 7.0 mph 10.0 mph 61 % 0.00 in
04:47 12.6 °F 1.7 °F 30.58 in West 8.0 mph 12.0 mph 61 % 0.00 in
04:52 12.6 °F 1.7 °F 30.58 in WSW 6.0 mph 12.0 mph 61 % 0.00 in
04:56 12.7 °F 1.8 °F 30.58 in SW 4.0 mph 12.0 mph 61 % 0.00 in
04:57 12.7 °F 1.8 °F 30.58 in WSW 4.0 mph 12.0 mph 61 % 0.00 in
05:02 12.7 °F 1.8 °F 30.58 in WSW 7.0 mph 12.0 mph 61 % 0.00 in
05:03 12.7 °F 1.8 °F 30.58 in SW 4.0 mph 12.0 mph 61 % 0.00 in
05:08 12.7 °F 1.8 °F 30.58 in Calm   11.0 mph 61 % 0.00 in
05:09 12.7 °F 1.8 °F 30.58 in Calm   11.0 mph 61 % 0.00 in
05:13 12.6 °F 1.7 °F 30.58 in WSW 5.0 mph 11.0 mph 61 % 0.00 in
05:18 12.7 °F 1.8 °F 30.58 in Calm   10.0 mph 61 % 0.00 in
05:21 12.8 °F 1.9 °F 30.58 in WSW 3.0 mph 10.0 mph 61 % 0.00 in
05:26 12.8 °F 1.9 °F 30.58 in WSW 5.0 mph 12.0 mph 61 % 0.00 in
05:27 12.8 °F 1.9 °F 30.58 in North 2.0 mph 12.0 mph 61 % 0.00 in
05:28 12.8 °F 1.9 °F 30.58 in West 8.0 mph 12.0 mph 61 % 0.00 in
05:33 12.9 °F 2.0 °F 30.58 in WSW 6.0 mph 12.0 mph 61 % 0.00 in
05:38 12.9 °F 2.0 °F 30.58 in WSW 6.0 mph 12.0 mph 61 % 0.00 in
05:39 12.9 °F 2.0 °F 30.58 in WSW 1.0 mph 12.0 mph 61 % 0.00 in
05:44 12.9 °F 2.0 °F 30.58 in WSW 3.0 mph 11.0 mph 61 % 0.00 in
05:46 12.8 °F 1.9 °F 30.58 in WSW 2.0 mph 11.0 mph 61 % 0.00 in
05:49 12.8 °F 1.9 °F 30.58 in WSW 4.0 mph 11.0 mph 61 % 0.00 in
05:51 12.8 °F 1.9 °F 30.59 in WSW 3.0 mph 11.0 mph 61 % 0.00 in
05:56 12.8 °F 1.9 °F 30.59 in WSW 7.0 mph 11.0 mph 61 % 0.00 in
05:57 12.8 °F 1.9 °F 30.59 in SW 4.0 mph 11.0 mph 61 % 0.00 in
05:58 12.8 °F 1.9 °F 30.59 in SW 3.0 mph 11.0 mph 61 % 0.00 in
06:03 12.8 °F 1.9 °F 30.59 in WSW 4.0 mph 11.0 mph 61 % 0.00 in
06:04 12.8 °F 1.9 °F 30.59 in WSW 5.0 mph 11.0 mph 61 % 0.00 in
06:05 12.8 °F 1.9 °F 30.59 in WSW 6.0 mph 11.0 mph 61 % 0.00 in
06:09 12.8 °F 1.9 °F 30.59 in WSW 3.0 mph 11.0 mph 61 % 0.00 in
06:14 12.7 °F 1.8 °F 30.59 in SW 2.0 mph 10.0 mph 61 % 0.00 in
06:15 12.7 °F 1.8 °F 30.59 in SW 2.0 mph 10.0 mph 61 % 0.00 in
06:18 12.8 °F 1.9 °F 30.59 in Calm   10.0 mph 61 % 0.00 in
06:21 12.7 °F 1.8 °F 30.60 in WSW 4.0 mph 10.0 mph 61 % 0.00 in
06:26 12.7 °F 1.8 °F 30.60 in WSW 6.0 mph 12.0 mph 61 % 0.00 in
06:27 12.7 °F 1.8 °F 30.60 in West 4.0 mph 12.0 mph 61 % 0.00 in
06:32 12.6 °F 1.7 °F 30.60 in SW 8.0 mph 12.0 mph 61 % 0.00 in
06:35 12.7 °F 1.8 °F 30.60 in WSW 3.0 mph 12.0 mph 61 % 0.00 in
06:38 12.7 °F 1.8 °F 30.60 in WSW 2.0 mph 12.0 mph 61 % 0.00 in
06:43 12.6 °F 1.7 °F 30.60 in SW 2.0 mph 12.0 mph 61 % 0.00 in
06:48 12.6 °F 1.7 °F 30.60 in SW 6.0 mph 11.0 mph 61 % 0.00 in
06:49 12.6 °F 1.7 °F 30.60 in SW 2.0 mph 11.0 mph 61 % 0.00 in
06:50 12.6 °F 1.7 °F 30.61 in SW 4.0 mph 11.0 mph 61 % 0.00 in
06:55 12.7 °F 1.8 °F 30.61 in SW 1.0 mph 11.0 mph 61 % 0.00 in
06:58 12.7 °F 1.8 °F 30.61 in West 3.0 mph 11.0 mph 61 % 0.00 in
07:00 12.7 °F 1.8 °F 30.61 in West 4.0 mph 11.0 mph 61 % 0.00 in
07:05 12.7 °F 1.8 °F 30.61 in WSW 4.0 mph 10.0 mph 61 % 0.00 in
07:10 12.7 °F 1.8 °F 30.61 in SW 1.0 mph 10.0 mph 61 % 0.00 in
07:15 12.6 °F 1.7 °F 30.61 in SW 2.0 mph 9.0 mph 61 % 0.00 in
07:17 12.7 °F 1.8 °F 30.61 in SW 2.0 mph 9.0 mph 61 % 0.00 in
07:22 12.6 °F 1.7 °F 30.61 in SW 1.0 mph 12.0 mph 61 % 0.00 in
07:23 12.6 °F 1.7 °F 30.61 in WSW 2.0 mph 12.0 mph 61 % 0.00 in
07:28 12.5 °F 1.6 °F 30.61 in WSW 3.0 mph 12.0 mph 61 % 0.00 in
07:29 12.5 °F 1.6 °F 30.61 in WSW 1.0 mph 12.0 mph 61 % 0.00 in
07:34 12.4 °F 1.5 °F 30.61 in WSW 3.0 mph 12.0 mph 61 % 0.00 in
07:35 12.4 °F 1.8 °F 30.61 in SW 8.0 mph 12.0 mph 62 % 0.00 in
07:36 12.4 °F 1.8 °F 30.61 in SW 5.0 mph 12.0 mph 62 % 0.00 in
07:41 12.4 °F 1.8 °F 30.61 in West 5.0 mph 12.0 mph 62 % 0.00 in
07:46 12.4 °F 1.8 °F 30.61 in SW 5.0 mph 12.0 mph 62 % 0.00 in
07:48 12.4 °F 1.8 °F 30.61 in SW 2.0 mph 12.0 mph 62 % 0.00 in
07:49 12.4 °F 1.8 °F 30.61 in SW 7.0 mph 12.0 mph 62 % 0.00 in
07:54 12.5 °F 1.6 °F 30.61 in WSW 9.0 mph 13.0 mph 61 % 0.00 in
07:55 12.5 °F 1.6 °F 30.61 in SW 3.0 mph 13.0 mph 61 % 0.00 in
07:56 12.5 °F 1.6 °F 30.61 in Calm   13.0 mph 61 % 0.00 in
08:00 12.6 °F 1.7 °F 30.61 in West 7.0 mph 13.0 mph 61 % 0.00 in
08:01 12.6 °F 1.7 °F 30.61 in West 2.0 mph 13.0 mph 61 % 0.00 in
08:03 12.6 °F 1.7 °F 30.61 in SW 1.0 mph 13.0 mph 61 % 0.00 in
08:06 12.6 °F 1.7 °F 30.62 in WSW 2.0 mph 13.0 mph 61 % 0.00 in
08:11 12.7 °F 1.8 °F 30.62 in WSW 3.0 mph 12.0 mph 61 % 0.00 in
08:13 12.8 °F 1.9 °F 30.62 in WSW 1.0 mph 12.0 mph 61 % 0.00 in
08:14 12.8 °F 1.9 °F 30.62 in WSW 4.0 mph 12.0 mph 61 % 0.00 in
08:19 12.9 °F 2.0 °F 30.62 in WSW 5.0 mph 12.0 mph 61 % 0.00 in
08:20 13.0 °F 2.1 °F 30.62 in WSW 2.0 mph 12.0 mph 61 % 0.00 in
08:25 13.1 °F 1.8 °F 30.62 in WSW 3.0 mph 12.0 mph 60 % 0.00 in
08:26 13.1 °F 1.8 °F 30.62 in West 6.0 mph 12.0 mph 60 % 0.00 in
08:31 13.2 °F 1.9 °F 30.62 in West 2.0 mph 13.0 mph 60 % 0.00 in
08:32 13.2 °F 1.9 °F 30.62 in WSW 6.0 mph 13.0 mph 60 % 0.00 in
08:37 13.4 °F 2.1 °F 30.63 in WSW 7.0 mph 13.0 mph 60 % 0.00 in
08:42 13.5 °F 2.2 °F 30.63 in Calm   13.0 mph 60 % 0.00 in
08:43 13.5 °F 2.2 °F 30.63 in SW 5.0 mph 13.0 mph 60 % 0.00 in
08:48 13.7 °F 2.0 °F 30.63 in SW 10.0 mph 14.0 mph 59 % 0.00 in
08:49 13.7 °F 2.0 °F 30.63 in WSW 5.0 mph 14.0 mph 59 % 0.00 in
08:54 13.9 °F 2.2 °F 30.63 in WSW 11.0 mph 15.0 mph 59 % 0.00 in
08:55 14.0 °F 2.3 °F 30.63 in WSW 4.0 mph 15.0 mph 59 % 0.00 in
09:00 14.1 °F 2.4 °F 30.63 in WSW 4.0 mph 15.0 mph 59 % 0.00 in
09:05 14.1 °F 2.0 °F 30.63 in WSW 6.0 mph 15.0 mph 58 % 0.00 in
09:06 14.2 °F 2.1 °F 30.63 in SW 5.0 mph 15.0 mph 58 % 0.00 in
09:11 14.4 °F 2.7 °F 30.63 in WSW 10.0 mph 15.0 mph 59 % 0.00 in
09:12 14.3 °F 2.6 °F 30.63 in WSW 5.0 mph 15.0 mph 59 % 0.00 in
09:17 14.5 °F 2.4 °F 30.63 in West 7.0 mph 13.0 mph 58 % 0.00 in
09:21 14.5 °F 2.4 °F 30.63 in SW 6.0 mph 15.0 mph 58 % 0.00 in
09:22 14.5 °F 2.4 °F 30.63 in SW 9.0 mph 15.0 mph 58 % 0.00 in
09:27 14.7 °F 2.6 °F 30.63 in WSW 2.0 mph 15.0 mph 58 % 0.00 in
09:29 14.8 °F 2.7 °F 30.63 in WSW 1.0 mph 15.0 mph 58 % 0.00 in
09:34 14.9 °F 2.8 °F 30.63 in SW 15.0 mph 15.0 mph 58 % 0.00 in
09:36 14.9 °F 2.4 °F 30.64 in West 6.0 mph 17.0 mph 57 % 0.00 in
09:39 14.9 °F 2.8 °F 30.63 in WSW 1.0 mph 17.0 mph 58 % 0.00 in
09:44 15.0 °F 2.9 °F 30.64 in SW 8.0 mph 17.0 mph 58 % 0.00 in
09:49 15.2 °F 3.1 °F 30.64 in WSW 8.0 mph 17.0 mph 58 % 0.00 in
09:50 15.2 °F 3.1 °F 30.64 in WNW 9.0 mph 17.0 mph 58 % 0.00 in
09:55 15.3 °F 2.8 °F 30.64 in SSW 8.0 mph 17.0 mph 57 % 0.00 in
09:56 15.3 °F 2.8 °F 30.64 in WSW 2.0 mph 17.0 mph 57 % 0.00 in
10:01 15.5 °F 3.0 °F 30.64 in West 2.0 mph 17.0 mph 57 % 0.00 in
10:02 15.6 °F 3.4 °F 30.64 in WSW 3.0 mph 17.0 mph 58 % 0.00 in
10:07 15.8 °F 3.2 °F 30.64 in Calm   17.0 mph 57 % 0.00 in
10:08 15.8 °F 3.2 °F 30.64 in WSW 5.0 mph 17.0 mph 57 % 0.00 in
10:10 15.8 °F 2.9 °F 30.64 in West 2.0 mph 17.0 mph 56 % 0.00 in
10:13 15.9 °F 3.3 °F 30.64 in WSW 6.0 mph 14.0 mph 57 % 0.00 in
10:16 16.0 °F 3.0 °F 30.64 in WSW 7.0 mph 14.0 mph 56 % 0.00 in
10:21 16.0 °F 3.0 °F 30.64 in WSW 6.0 mph 13.0 mph 56 % 0.00 in
10:26 16.1 °F 3.1 °F 30.64 in West 6.0 mph 13.0 mph 56 % 0.00 in
10:28 16.2 °F 3.2 °F 30.64 in WSW 2.0 mph 13.0 mph 56 % 0.00 in
10:33 16.3 °F 3.3 °F 30.64 in SW 8.0 mph 16.0 mph 56 % 0.00 in
10:38 16.6 °F 3.6 °F 30.64 in WSW 5.0 mph 16.0 mph 56 % 0.00 in
10:39 16.6 °F 3.2 °F 30.64 in NW 4.0 mph 16.0 mph 55 % 0.00 in
10:40 16.7 °F 3.3 °F 30.64 in NW 1.0 mph 16.0 mph 55 % 0.00 in
10:45 16.8 °F 3.4 °F 30.64 in WSW 9.0 mph 16.0 mph 55 % 0.00 in
10:47 16.9 °F 3.5 °F 30.64 in WSW 2.0 mph 16.0 mph 55 % 0.00 in
10:52 17.1 °F 3.7 °F 30.63 in WSW 6.0 mph 12.0 mph 55 % 0.00 in
10:56 17.3 °F 3.5 °F 30.63 in Calm   12.0 mph 54 % 0.00 in
11:00 17.3 °F 3.5 °F 30.63 in West 3.0 mph 12.0 mph 54 % 0.00 in
11:03 17.3 °F 3.5 °F 30.63 in WSW 5.0 mph 12.0 mph 54 % 0.00 in
11:06 17.3 °F 3.5 °F 30.62 in West 8.0 mph 12.0 mph 54 % 0.00 in
11:09 17.5 °F 3.7 °F 30.62 in WSW 4.0 mph 12.0 mph 54 % 0.00 in
11:14 17.5 °F 3.2 °F 30.62 in WNW 7.0 mph 13.0 mph 53 % 0.00 in
11:18 17.6 °F 3.7 °F 30.62 in West 5.0 mph 13.0 mph 54 % 0.00 in
11:21 17.6 °F 3.7 °F 30.62 in WSW 5.0 mph 13.0 mph 54 % 0.00 in
11:26 17.8 °F 3.9 °F 30.61 in WSW 11.0 mph 13.0 mph 54 % 0.00 in
11:31 18.1 °F 4.2 °F 30.61 in West 4.0 mph 13.0 mph 54 % 0.00 in
11:32 18.1 °F 3.8 °F 30.61 in West 4.0 mph 13.0 mph 53 % 0.00 in
11:37 18.1 °F 3.8 °F 30.60 in SW 7.0 mph 13.0 mph 53 % 0.00 in
11:42 18.5 °F 4.6 °F 30.60 in WSW 4.0 mph 13.0 mph 54 % 0.00 in
11:43 18.5 °F 4.6 °F 30.60 in West 4.0 mph 13.0 mph 54 % 0.00 in
11:48 18.7 °F 4.4 °F 30.60 in SW 4.0 mph 13.0 mph 53 % 0.00 in
11:53 18.9 °F 4.5 °F 30.59 in West 2.0 mph 11.0 mph 53 % 0.00 in
11:54 18.9 °F 4.5 °F 30.59 in WSW 4.0 mph 11.0 mph 53 % 0.00 in
11:58 18.9 °F 4.5 °F 30.59 in WSW 2.0 mph 14.0 mph 53 % 0.00 in
12:00 18.9 °F 4.5 °F 30.59 in SW 7.0 mph 14.0 mph 53 % 0.00 in
12:05 19.0 °F 4.2 °F 30.58 in WSW 3.0 mph 14.0 mph 52 % 0.00 in
12:08 19.0 °F 4.2 °F 30.58 in SW 8.0 mph 14.0 mph 52 % 0.00 in
12:13 19.0 °F 4.2 °F 30.58 in WSW 6.0 mph 15.0 mph 52 % 0.00 in
12:14 19.0 °F 4.2 °F 30.58 in SW 6.0 mph 15.0 mph 52 % 0.00 in
12:19 19.0 °F 4.2 °F 30.58 in SW 6.0 mph 15.0 mph 52 % 0.00 in
12:22 19.2 °F 4.4 °F 30.57 in West 1.0 mph 15.0 mph 52 % 0.00 in
12:28 19.4 °F 4.6 °F 30.57 in SSW 7.0 mph 12.0 mph 52 % 0.00 in
12:33 19.5 °F 4.2 °F 30.57 in SW 5.0 mph 12.0 mph 51 % 0.00 in
12:35 19.5 °F 4.7 °F 30.56 in West 5.0 mph 12.0 mph 52 % 0.00 in
12:40 19.7 °F 4.9 °F 30.56 in WSW 5.0 mph 12.0 mph 52 % 0.00 in
12:41 19.8 °F 5.0 °F 30.56 in SW 5.0 mph 12.0 mph 52 % 0.00 in
12:44 19.9 °F 4.6 °F 30.56 in WSW 4.0 mph 12.0 mph 51 % 0.00 in
12:46 19.9 °F 4.6 °F 30.56 in WSW 5.0 mph 11.0 mph 51 % 0.00 in
13:03 20.2 °F 4.9 °F 30.55 in SW 8.0 mph 12.0 mph 51 % 0.00 in
13:08 20.5 °F 5.2 °F 30.54 in SW 4.0 mph 12.0 mph 51 % 0.00 in
13:11 20.7 °F 5.4 °F 30.54 in WSW 5.0 mph 12.0 mph 51 % 0.00 in
13:14 20.8 °F 5.5 °F 30.54 in Calm   12.0 mph 51 % 0.00 in
13:19 20.9 °F 5.6 °F 30.54 in WSW 7.0 mph 12.0 mph 51 % 0.00 in
13:20 20.9 °F 5.6 °F 30.54 in SW 4.0 mph 12.0 mph 51 % 0.00 in
13:25 21.1 °F 5.3 °F 30.54 in SSW 4.0 mph 11.0 mph 50 % 0.00 in
13:26 21.1 °F 5.3 °F 30.54 in West 1.0 mph 11.0 mph 50 % 0.00 in
13:29 21.3 °F 5.9 °F 30.54 in Calm   11.0 mph 51 % 0.00 in
13:31 21.4 °F 5.6 °F 30.54 in WSW 2.0 mph 11.0 mph 50 % 0.00 in
13:36 21.5 °F 5.7 °F 30.53 in SW 5.0 mph 11.0 mph 50 % 0.00 in
13:37 21.5 °F 5.7 °F 30.53 in SW 5.0 mph 11.0 mph 50 % 0.00 in
13:42 21.6 °F 5.8 °F 30.53 in West 2.0 mph 11.0 mph 50 % 0.00 in
13:47 21.6 °F 5.8 °F 30.53 in WSW 3.0 mph 10.0 mph 50 % 0.00 in
13:48 21.6 °F 5.4 °F 30.53 in WSW 3.0 mph 10.0 mph 49 % 0.00 in
13:49 21.7 °F 5.5 °F 30.53 in SW 5.0 mph 10.0 mph 49 % 0.00 in
13:53 21.6 °F 5.4 °F 30.52 in WSW 6.0 mph 10.0 mph 49 % 0.00 in
13:58 21.6 °F 5.4 °F 30.52 in WSW 4.0 mph 10.0 mph 49 % 0.00 in
13:59 21.6 °F 5.4 °F 30.52 in SW 3.0 mph 10.0 mph 49 % 0.00 in
14:03 21.6 °F 5.4 °F 30.52 in SSW 2.0 mph 10.0 mph 49 % 0.00 in
14:07 21.6 °F 5.4 °F 30.52 in SW 2.0 mph 10.0 mph 49 % 0.00 in
14:10 21.5 °F 5.3 °F 30.52 in Calm   10.0 mph 49 % 0.00 in
14:13 21.6 °F 5.4 °F 30.51 in SW 3.0 mph 10.0 mph 49 % 0.00 in
14:16 21.7 °F 5.5 °F 30.51 in WSW 3.0 mph 10.0 mph 49 % 0.00 in
14:21 21.9 °F 5.6 °F 30.51 in SW 8.0 mph 9.0 mph 49 % 0.00 in
14:22 22.0 °F 5.7 °F 30.51 in SW 7.0 mph 9.0 mph 49 % 0.00 in
14:27 21.9 °F 5.6 °F 30.51 in Calm   9.0 mph 49 % 0.00 in
14:28 21.9 °F 5.6 °F 30.51 in SW 5.0 mph 9.0 mph 49 % 0.00 in
14:33 22.1 °F 5.8 °F 30.51 in WSW 8.0 mph 9.0 mph 49 % 0.00 in
14:36 22.2 °F 5.4 °F 30.51 in SW 4.0 mph 9.0 mph 48 % 0.00 in
14:37 22.2 °F 5.4 °F 30.51 in SW 1.0 mph 9.0 mph 48 % 0.00 in
14:41 22.2 °F 5.4 °F 30.51 in WSW 3.0 mph 9.0 mph 48 % 0.00 in
14:43 22.2 °F 5.4 °F 30.51 in WSW 3.0 mph 10.0 mph 48 % 0.00 in
14:46 22.3 °F 5.5 °F 30.51 in SW 4.0 mph 10.0 mph 48 % 0.00 in
14:51 22.4 °F 5.6 °F 30.51 in SW 6.0 mph 10.0 mph 48 % 0.00 in
14:53 22.4 °F 5.6 °F 30.51 in SW 3.0 mph 10.0 mph 48 % 0.00 in
14:56 22.4 °F 5.6 °F 30.51 in SW 7.0 mph 10.0 mph 48 % 0.00 in
14:59 22.4 °F 5.6 °F 30.51 in SW 3.0 mph 10.0 mph 48 % 0.00 in
15:02 22.4 °F 5.6 °F 30.50 in SW 4.0 mph 10.0 mph 48 % 0.00 in
15:04 22.5 °F 5.7 °F 30.50 in WSW 3.0 mph 10.0 mph 48 % 0.00 in
15:09 22.6 °F 5.8 °F 30.50 in SW 4.0 mph 10.0 mph 48 % 0.00 in
15:11 22.6 °F 5.8 °F 30.50 in SW 5.0 mph 12.0 mph 48 % 0.00 in
15:15 22.7 °F 5.8 °F 30.50 in Calm   12.0 mph 48 % 0.00 in
15:16 22.8 °F 5.9 °F 30.50 in WSW 4.0 mph 12.0 mph 48 % 0.00 in
15:21 22.8 °F 5.9 °F 30.50 in SW 2.0 mph 12.0 mph 48 % 0.00 in
15:22 22.8 °F 5.5 °F 30.50 in SW 1.0 mph 12.0 mph 47 % 0.00 in
15:27 22.8 °F 5.5 °F 30.50 in WSW 4.0 mph 12.0 mph 47 % 0.00 in
15:28 22.8 °F 5.5 °F 30.50 in SW 8.0 mph 12.0 mph 47 % 0.00 in
15:33 22.8 °F 5.5 °F 30.50 in SW 4.0 mph 11.0 mph 47 % 0.00 in
15:37 22.8 °F 5.5 °F 30.50 in SW 4.0 mph 11.0 mph 47 % 0.00 in
15:39 22.9 °F 5.6 °F 30.50 in Calm   11.0 mph 47 % 0.00 in
15:44 22.9 °F 5.6 °F 30.50 in SW 4.0 mph 11.0 mph 47 % 0.00 in
15:48 23.0 °F 7.0 °F 30.50 in SW 5.0 mph 10.0 mph 50 % 0.00 in
15:53 23.0 °F 5.6 °F 30.50 in West 8.0 mph 10.0 mph 47 % 0.00 in
15:54 23.0 °F 5.6 °F 30.50 in SW 5.0 mph 10.0 mph 47 % 0.00 in
15:59 22.9 °F 5.6 °F 30.50 in WSW 2.0 mph 10.0 mph 47 % 0.00 in
16:00 22.9 °F 5.6 °F 30.49 in Calm   10.0 mph 47 % 0.00 in
16:03 22.9 °F 5.6 °F 30.50 in SW 9.0 mph 10.0 mph 47 % 0.00 in
16:08 22.8 °F 5.5 °F 30.49 in SW 2.0 mph 10.0 mph 47 % 0.00 in
16:09 22.8 °F 5.0 °F 30.49 in SW 5.0 mph 9.0 mph 46 % 0.00 in
16:14 22.7 °F 5.5 °F 30.49 in Calm   9.0 mph 47 % 0.00 in
16:15 22.7 °F 5.5 °F 30.49 in SW 4.0 mph 9.0 mph 47 % 0.00 in
16:20 22.7 °F 5.5 °F 30.49 in SW 2.0 mph 9.0 mph 47 % 0.00 in
16:22 22.7 °F 5.5 °F 30.49 in WSW 3.0 mph 9.0 mph 47 % 0.00 in
16:24 22.6 °F 5.4 °F 30.49 in WSW 2.0 mph 9.0 mph 47 % 0.00 in
16:29 22.5 °F 5.3 °F 30.49 in WSW 2.0 mph 7.0 mph 47 % 0.00 in
16:34 22.5 °F 5.3 °F 30.49 in SW 3.0 mph 7.0 mph 47 % 0.00 in
16:39 22.4 °F 5.1 °F 30.48 in Calm   8.0 mph 47 % 0.00 in
16:43 22.5 °F 5.2 °F 30.48 in SW 1.0 mph 8.0 mph 47 % 0.00 in
16:46 22.3 °F 5.0 °F 30.48 in Calm   8.0 mph 47 % 0.00 in
16:48 22.3 °F 5.0 °F 30.48 in Calm   8.0 mph 47 % 0.00 in
16:52 22.2 °F 4.9 °F 30.48 in Calm   8.0 mph 47 % 0.00 in
16:56 22.0 °F 5.2 °F 30.48 in Calm   5.0 mph 48 % 0.00 in
16:57 22.0 °F 5.2 °F 30.48 in SW 2.0 mph 5.0 mph 48 % 0.00 in
17:02 21.9 °F 5.1 °F 30.48 in Calm   5.0 mph 48 % 0.00 in
17:03 21.9 °F 5.1 °F 30.48 in Calm   5.0 mph 48 % 0.00 in
17:08 21.7 °F 4.9 °F 30.48 in Calm   5.0 mph 48 % 0.00 in
17:09 21.7 °F 4.9 °F 30.48 in SW 1.0 mph 5.0 mph 48 % 0.00 in
17:14 21.6 °F 5.3 °F 30.48 in Calm   5.0 mph 49 % 0.00 in
17:15 21.5 °F 5.2 °F 30.48 in Calm   5.0 mph 49 % 0.00 in
17:16 21.5 °F 5.2 °F 30.48 in Calm   4.0 mph 49 % 0.00 in
17:20 21.3 °F 5.0 °F 30.48 in Calm   3.0 mph 49 % 0.00 in
17:25 20.9 °F 4.6 °F 30.48 in Calm   2.0 mph 49 % 0.00 in
17:27 20.8 °F 4.6 °F 30.48 in Calm   1.0 mph 49 % 0.00 in
17:28 20.7 °F 4.5 °F 30.48 in Calm   1.0 mph 49 % 0.00 in
17:33 20.4 °F 4.6 °F 30.48 in Calm     50 % 0.00 in
17:36 20.2 °F 4.5 °F 30.48 in Calm     50 % 0.00 in
17:39 19.9 °F 4.6 °F 30.48 in Calm   1.0 mph 51 % 0.00 in
17:42 19.9 °F 4.7 °F 30.48 in Calm   1.0 mph 51 % 0.00 in
17:47 19.7 °F 4.5 °F 30.48 in Calm   1.0 mph 51 % 0.00 in
17:52 19.4 °F 4.6 °F 30.48 in Calm   1.0 mph 52 % 0.00 in
17:57 19.0 °F 4.7 °F 30.48 in Calm   1.0 mph 53 % 0.00 in
17:59 18.9 °F 4.6 °F 30.48 in Calm     53 % 0.00 in
18:03 18.6 °F 4.3 °F 30.48 in Calm     53 % 0.00 in
18:08 18.3 °F 4.4 °F 30.48 in Calm     54 % 0.00 in
18:12 18.0 °F 4.5 °F 30.48 in Calm     55 % 0.00 in
18:13 18.0 °F 4.1 °F 30.48 in Calm   1.0 mph 54 % 0.00 in
18:18 17.8 °F 4.3 °F 30.48 in Calm   1.0 mph 55 % 0.00 in
18:23 17.7 °F 4.3 °F 30.48 in Calm   1.0 mph 55 % 0.00 in
18:28 17.6 °F 4.6 °F 30.48 in Calm   1.0 mph 56 % 0.00 in
18:31 17.5 °F 4.9 °F 30.47 in Calm   1.0 mph 57 % 0.00 in
18:34 17.4 °F 4.8 °F 30.48 in Calm     57 % 0.00 in
18:37 17.3 °F 5.1 °F 30.48 in Calm     58 % 0.00 in
18:39 17.3 °F 5.1 °F 30.48 in Calm     58 % 0.00 in
18:44 17.2 °F 5.0 °F 30.48 in Calm     58 % 0.00 in
18:46 17.1 °F 4.9 °F 30.48 in Calm     58 % 0.00 in
18:50 17.1 °F 5.3 °F 30.48 in Calm   3.0 mph 59 % 0.00 in
18:51 17.2 °F 5.3 °F 30.48 in Calm   3.0 mph 59 % 0.00 in
18:56 17.1 °F 5.3 °F 30.48 in Calm   3.0 mph 59 % 0.00 in
18:57 17.1 °F 5.3 °F 30.48 in Calm   3.0 mph 59 % 0.00 in
19:01 17.0 °F 5.2 °F 30.48 in Calm   3.0 mph 59 % 0.00 in
19:05 17.0 °F 5.2 °F 30.48 in Calm   3.0 mph 59 % 0.00 in
19:07 16.9 °F 5.4 °F 30.48 in Calm   1.0 mph 60 % 0.00 in
19:11 16.7 °F 5.2 °F 30.48 in Calm   1.0 mph 60 % 0.00 in
19:13 16.6 °F 5.2 °F 30.48 in Calm   1.0 mph 60 % 0.00 in
19:18 16.4 °F 5.3 °F 30.48 in Calm   1.0 mph 61 % 0.00 in
19:19 16.4 °F 5.3 °F 30.48 in Calm     61 % 0.00 in
19:23 16.2 °F 5.1 °F 30.48 in Calm     61 % 0.00 in
19:25 16.2 °F 5.1 °F 30.48 in Calm     61 % 0.00 in
19:30 16.0 °F 5.0 °F 30.47 in Calm     61 % 0.00 in
19:35 15.8 °F 5.1 °F 30.47 in Calm     62 % 0.00 in
19:39 15.5 °F 4.8 °F 30.47 in Calm     62 % 0.00 in
19:40 15.5 °F 4.8 °F 30.47 in Calm     62 % 0.00 in
19:45 15.3 °F 5.0 °F 30.47 in Calm     63 % 0.00 in
19:46 15.3 °F 5.0 °F 30.47 in Calm     63 % 0.00 in
19:51 15.1 °F 4.8 °F 30.47 in Calm     63 % 0.00 in
19:53 15.0 °F 4.7 °F 30.47 in Calm     63 % 0.00 in
19:58 14.9 °F 4.6 °F 30.47 in Calm     63 % 0.00 in
19:59 14.9 °F 4.6 °F 30.47 in Calm     63 % 0.00 in
20:04 14.8 °F 4.9 °F 30.47 in Calm     64 % 0.00 in
20:09 14.8 °F 4.9 °F 30.47 in Calm   1.0 mph 64 % 0.00 in
20:10 14.8 °F 4.9 °F 30.47 in Calm   1.0 mph 64 % 0.00 in
20:15 14.7 °F 4.8 °F 30.47 in Calm   1.0 mph 64 % 0.00 in
20:17 14.7 °F 4.8 °F 30.47 in Calm   1.0 mph 64 % 0.00 in
20:22 14.6 °F 5.0 °F 30.47 in Calm   1.0 mph 65 % 0.00 in
20:23 14.6 °F 5.0 °F 30.47 in Calm   1.0 mph 65 % 0.00 in
20:28 14.6 °F 4.7 °F 30.47 in Calm   1.0 mph 64 % 0.00 in
20:29 14.6 °F 4.7 °F 30.47 in Calm   1.0 mph 64 % 0.00 in
20:30 14.6 °F 4.7 °F 30.47 in Calm   1.0 mph 64 % 0.00 in
20:35 14.7 °F 4.7 °F 30.47 in Calm   1.0 mph 64 % 0.00 in
20:40 14.8 °F 4.9 °F 30.47 in Calm   1.0 mph 64 % 0.00 in
20:45 15.0 °F 4.7 °F 30.47 in Calm   1.0 mph 63 % 0.00 in
20:47 15.0 °F 4.7 °F 30.47 in Calm   1.0 mph 63 % 0.00 in
20:51 15.2 °F 4.9 °F 30.47 in Calm   1.0 mph 63 % 0.00 in
20:56 15.3 °F 4.9 °F 30.47 in Calm   1.0 mph 63 % 0.00 in
21:01 15.4 °F 5.1 °F 30.46 in Calm   2.0 mph 63 % 0.00 in
21:02 15.4 °F 4.7 °F 30.46 in Calm   2.0 mph 62 % 0.00 in
21:03 15.4 °F 4.7 °F 30.47 in Calm   2.0 mph 62 % 0.00 in
21:07 15.5 °F 4.8 °F 30.47 in Calm   3.0 mph 62 % 0.00 in
21:12 15.6 °F 4.9 °F 30.47 in Calm   3.0 mph 62 % 0.00 in
21:13 15.7 °F 5.0 °F 30.47 in Calm   3.0 mph 62 % 0.00 in
21:18 16.0 °F 5.3 °F 30.46 in Calm   3.0 mph 62 % 0.00 in
21:19 16.1 °F 5.4 °F 30.46 in Calm   3.0 mph 62 % 0.00 in
21:21 16.2 °F 5.5 °F 30.46 in Calm   3.0 mph 62 % 0.00 in
21:24 16.4 °F 5.3 °F 30.47 in Calm   1.0 mph 61 % 0.00 in
21:28 16.6 °F 5.5 °F 30.47 in Calm   2.0 mph 61 % 0.00 in
21:30 16.7 °F 5.6 °F 30.47 in Calm   2.0 mph 61 % 0.00 in
21:34 16.9 °F 5.4 °F 30.46 in Calm   2.0 mph 60 % 0.00 in
21:35 16.9 °F 5.4 °F 30.46 in Calm   2.0 mph 60 % 0.00 in
21:40 17.1 °F 5.6 °F 30.46 in Calm   2.0 mph 60 % 0.00 in
21:43 17.1 °F 5.6 °F 30.47 in Calm   2.0 mph 60 % 0.00 in
21:46 17.2 °F 5.7 °F 30.47 in SW 1.0 mph 3.0 mph 60 % 0.00 in
21:50 17.3 °F 5.4 °F 30.47 in Calm   3.0 mph 59 % 0.00 in
21:55 17.2 °F 5.3 °F 30.47 in Calm   3.0 mph 59 % 0.00 in
21:56 17.2 °F 5.3 °F 30.47 in Calm   3.0 mph 59 % 0.00 in
22:00 17.2 °F 5.7 °F 30.46 in Calm   3.0 mph 60 % 0.00 in
22:05 17.1 °F 5.3 °F 30.47 in Calm   2.0 mph 59 % 0.00 in
22:06 17.1 °F 5.3 °F 30.47 in Calm   2.0 mph 59 % 0.00 in
22:12 16.9 °F 5.4 °F 30.47 in Calm   2.0 mph 60 % 0.00 in
22:17 16.7 °F 5.2 °F 30.47 in Calm   2.0 mph 60 % 0.00 in
22:22 16.4 °F 5.0 °F 30.46 in Calm     60 % 0.00 in
22:27 16.1 °F 5.0 °F 30.46 in Calm     61 % 0.00 in
22:32 15.9 °F 4.9 °F 30.47 in Calm     61 % 0.00 in
22:37 15.8 °F 5.1 °F 30.46 in Calm   1.0 mph 62 % 0.00 in
22:39 15.7 °F 5.0 °F 30.46 in Calm   1.0 mph 62 % 0.00 in
22:44 15.5 °F 4.8 °F 30.46 in Calm   1.0 mph 62 % 0.00 in
22:46 15.4 °F 4.7 °F 30.46 in Calm   1.0 mph 62 % 0.00 in
22:47 15.4 °F 4.7 °F 30.46 in Calm   1.0 mph 62 % 0.00 in
22:48 15.3 °F 4.6 °F 30.46 in Calm   1.0 mph 62 % 0.00 in
22:53 15.2 °F 4.9 °F 30.46 in Calm   1.0 mph 63 % 0.00 in
22:58 15.0 °F 4.7 °F 30.46 in Calm   1.0 mph 63 % 0.00 in
22:59 14.9 °F 4.6 °F 30.46 in Calm   1.0 mph 63 % 0.00 in
23:05 14.7 °F 4.7 °F 30.46 in Calm     64 % 0.00 in
23:10 14.5 °F 4.5 °F 30.46 in Calm     64 % 0.00 in
23:11 14.5 °F 4.5 °F 30.46 in Calm     64 % 0.00 in
23:15 14.3 °F 4.7 °F 30.46 in Calm     65 % 0.00 in
23:20 14.1 °F 4.5 °F 30.46 in Calm     65 % 0.00 in
23:21 14.1 °F 4.5 °F 30.46 in Calm     65 % 0.00 in
23:26 14.0 °F 4.7 °F 30.46 in Calm     66 % 0.00 in
23:30 13.8 °F 4.5 °F 30.46 in Calm     66 % 0.00 in
23:32 13.8 °F 4.5 °F 30.46 in Calm     66 % 0.00 in
23:37 13.5 °F 4.2 °F 30.46 in Calm     66 % 0.00 in
23:42 13.2 °F 4.0 °F 30.46 in Calm     66 % 0.00 in
23:43 13.2 °F 4.0 °F 30.46 in Calm     66 % 0.00 in
23:47 13.0 °F 4.1 °F 30.45 in Calm     67 % 0.00 in
23:52 12.9 °F 4.1 °F 30.45 in Calm     67 % 0.00 in
23:55 12.8 °F 4.0 °F 30.45 in Calm     67 % 0.00 in
23:57 12.7 °F 3.9 °F 30.45 in Calm     67 % 0.00 in
MarylandWx.com
Compliments of Weather Underground - 7.25 mb